Ludington, MI

7:39 PM EST on December 12, 2019 (GMT -0500)
Mason County

Weather History for KLDM - May, 2019

Change the Weather History Date:

Tuesday, May 28, 2019

  Actual Average Record
Temperature  
Mean Temperature 58 °F -  
Max Temperature 63 °F 69 °F 89 °F (2018)
Min Temperature 52 °F 47 °F 28 °F (2008)
Degree Days  
Heating Degree Days 8    
Growing Degree Days 8 (Base 50)    
Moisture  
Dew Point 53 °F    
Average Humidity 89    
Maximum Humidity 97    
Minimum Humidity 70    
Precipitation  
Precipitation 0.10 in - - ()
Sea Level Pressure  
Sea Level Pressure 29.72 in    
Wind  
Wind Speed 7 mph (NE)    
Max Wind Speed 17 mph    
Max Gust Speed 23 mph    
Visibility 8 miles    
Events Rain    
Averages and records for this station are not official NWS values.
T = Trace of Precipitation, MM = Missing Value Source: NWS Daily Summary

Daily Weather History Graph

Daily Weather History Graph

Search for Another Location

Airport or City:

Astronomy

May. 28, 2019 Rise Set
Actual Time 6:08 AM EDT 9:17 PM EDT
Civil Twilight 5:33 AM EDT 9:52 PM EDT
Nautical Twilight 4:48 AM EDT 10:37 PM EDT
Astronomical Twilight 3:54 AM EDT 11:32 PM EDT
Moon 3:35 AM EDT (5/28) 3:12 PM EDT (5/28)
Length of Visible Light 16h 19m
Length of Day
15h 09m
Waning Crescent, 32% of the Moon is Illuminated
May 28
Waning Crescent
Jun 3
New
Jun 10
First Quarter
Jun 17
Full
Jun 25
Last Quarter

Hourly Weather History & Observations

Time (EDT) Temp. Dew Point Humidity Pressure Visibility Wind Dir Wind Speed Gust Speed Precip Events Conditions
12:15 AM 55.6 °F 52.7 °F 90% 29.66 in 10.0 mi East 17.3 mph 23.0 mph N/A   Drizzle
12:16 AM 55.6 °F 52.7 °F 90% 29.66 in 10.0 mi ESE 17.3 mph 23.0 mph N/A   Drizzle
12:35 AM 55.4 °F 52.9 °F 91% 29.66 in 7.0 mi NE 8.1 mph 18.4 mph 0.01 in Rain Light Rain
12:36 AM 55.4 °F 52.9 °F 91% 29.66 in 7.0 mi North 6.9 mph 18.4 mph 0.01 in Rain Light Rain
12:55 AM 55.0 °F 52.7 °F 92% 29.64 in 10.0 mi East 17.3 mph - 0.01 in   Overcast
1:15 AM 54.9 °F 52.9 °F 93% 29.64 in 5.0 mi East 10.4 mph 21.9 mph N/A Rain Light Rain
1:35 AM 54.5 °F 53.1 °F 95% 29.67 in 4.0 mi Calm Calm - 0.06 in Rain Heavy Rain
1:36 AM 54.5 °F 53.1 °F 95% 29.67 in 4.0 mi Calm Calm - 0.06 in Rain Heavy Rain
1:55 AM 54.7 °F 53.2 °F 95% 29.65 in 5.0 mi ESE 8.1 mph - 0.08 in Rain Rain
2:15 AM 54.5 °F 53.2 °F 96% 29.65 in 5.0 mi East 8.1 mph - N/A   Drizzle
2:35 AM 54.5 °F 53.6 °F 97% 29.63 in 10.0 mi East 8.1 mph - N/A   Overcast
2:36 AM 54.5 °F 53.6 °F 97% 29.63 in 10.0 mi East 8.1 mph - N/A   Overcast
2:55 AM 54.5 °F 53.6 °F 97% 29.64 in 10.0 mi East 6.9 mph - N/A   Overcast
2:56 AM 54.5 °F 53.6 °F 97% 29.64 in 10.0 mi East 6.9 mph - N/A   Overcast
3:15 AM 54.5 °F 53.6 °F 97% 29.63 in 7.0 mi ENE 5.8 mph - 0.01 in   Drizzle
3:16 AM 54.5 °F 53.6 °F 97% 29.63 in 7.0 mi East 4.6 mph - 0.01 in   Drizzle
3:35 AM 54.5 °F 53.6 °F 97% 29.62 in 10.0 mi East 6.9 mph - 0.01 in   Overcast
3:55 AM 54.5 °F 53.6 °F 97% 29.62 in 4.0 mi East 8.1 mph - 0.01 in   Overcast
4:15 AM 54.5 °F 53.6 °F 97% 29.62 in 5.0 mi East 8.1 mph - N/A   Overcast
4:16 AM 54.5 °F 53.6 °F 97% 29.62 in 5.0 mi East 8.1 mph - N/A   Overcast
4:35 AM 54.5 °F 53.6 °F 97% 29.61 in 5.0 mi ESE 8.1 mph - N/A   Overcast
4:55 AM 54.5 °F 53.4 °F 96% 29.62 in 7.0 mi East 6.9 mph - N/A   Overcast
5:15 AM 54.3 °F 53.4 °F 97% 29.63 in 7.0 mi East 4.6 mph - N/A   Overcast
5:16 AM 54.3 °F 53.2 °F 96% 29.63 in 7.0 mi East 4.6 mph - N/A   Overcast
5:35 AM 54.1 °F 53.2 °F 97% 29.64 in 7.0 mi East 4.6 mph - N/A   Overcast
5:36 AM 54.1 °F 53.2 °F 97% 29.64 in 7.0 mi East 4.6 mph - N/A   Overcast
5:55 AM 54.0 °F 52.9 °F 96% 29.64 in 7.0 mi ENE 6.9 mph - N/A   Overcast
5:56 AM 54.0 °F 52.9 °F 96% 29.64 in 7.0 mi ENE 6.9 mph - N/A   Overcast
6:15 AM 53.8 °F 52.9 °F 97% 29.64 in 5.0 mi ENE 6.9 mph - N/A   Overcast
6:35 AM 53.6 °F 52.7 °F 97% 29.64 in 1.8 mi ENE 3.5 mph - N/A   Drizzle
6:55 AM 53.6 °F 52.7 °F 97% 29.65 in 1.8 mi NE 4.6 mph - N/A   Drizzle
7:15 AM 52.7 °F 51.8 °F 97% 29.66 in 2.5 mi NE 4.6 mph - N/A   Light Drizzle
7:16 AM 52.7 °F 51.8 °F 97% 29.66 in 2.5 mi NE 4.6 mph - N/A   Light Drizzle
7:35 AM 52.2 °F 51.3 °F 97% 29.67 in 2.5 mi ENE 4.6 mph - N/A   Overcast
7:36 AM 52.2 °F 51.1 °F 96% 29.67 in 2.5 mi ENE 5.8 mph - N/A   Overcast
7:55 AM 52.0 °F 50.9 °F 96% 29.68 in 2.5 mi ENE 6.9 mph - N/A   Overcast
8:15 AM 52.0 °F 51.1 °F 97% 29.67 in 1.8 mi ENE 6.9 mph - N/A   Overcast
8:35 AM 52.2 °F 51.3 °F 97% 29.67 in 3.0 mi ENE 6.9 mph - N/A   Overcast
8:55 AM 52.7 °F 51.4 °F 95% 29.67 in 5.0 mi ENE 8.1 mph - N/A   Overcast
8:56 AM 52.7 °F 51.4 °F 95% 29.67 in 5.0 mi ENE 5.8 mph - N/A   Overcast
9:15 AM 52.9 °F 51.8 °F 96% 29.69 in 10.0 mi ENE 6.9 mph - N/A   Overcast
9:35 AM 53.1 °F 51.8 °F 95% 29.70 in 10.0 mi NE 4.6 mph - N/A   Overcast
9:55 AM 53.8 °F 52.2 °F 94% 29.70 in 10.0 mi East 6.9 mph - N/A   Overcast
9:56 AM 54.0 °F 52.2 °F 94% 29.70 in 10.0 mi ENE 6.9 mph - N/A   Overcast
10:15 AM 54.5 °F 52.7 °F 94% 29.72 in 10.0 mi NE 4.6 mph - N/A   Overcast
10:16 AM 54.5 °F 52.5 °F 93% 29.72 in 10.0 mi NE 3.5 mph - N/A   Overcast
10:35 AM 54.5 °F 52.7 °F 94% 29.73 in 7.0 mi Calm Calm - N/A   Overcast
10:36 AM 54.5 °F 52.7 °F 94% 29.73 in 7.0 mi Calm Calm - N/A   Overcast
10:55 AM 54.5 °F 53.1 °F 95% 29.75 in 2.5 mi Calm Calm - N/A   Overcast
11:15 AM 54.9 °F 53.1 °F 94% 29.75 in 10.0 mi Calm Calm - N/A   Overcast
11:35 AM 55.4 °F 53.6 °F 94% 29.76 in 10.0 mi NE 3.5 mph - N/A   Overcast
11:55 AM 55.9 °F 53.8 °F 92% 29.74 in 10.0 mi NE 5.8 mph - N/A   Overcast
11:56 AM 55.9 °F 53.8 °F 92% 29.74 in 10.0 mi NE 5.8 mph - N/A   Overcast
12:15 PM 56.3 °F 53.6 °F 91% 29.76 in 10.0 mi NE 6.9 mph - N/A   Overcast
12:35 PM 56.5 °F 53.4 °F 89% 29.76 in 10.0 mi NE 5.8 mph - N/A   Overcast
12:55 PM 57.7 °F 54.0 °F 87% 29.77 in 10.0 mi NE 5.8 mph - N/A   Overcast
12:56 PM 57.7 °F 54.0 °F 87% 29.77 in 10.0 mi NE 5.8 mph - N/A   Overcast
1:15 PM 58.1 °F 53.8 °F 86% 29.76 in 10.0 mi ENE 6.9 mph - N/A   Overcast
1:16 PM 58.3 °F 54.0 °F 86% 29.76 in 10.0 mi ENE 6.9 mph - N/A   Overcast
1:35 PM 59.2 °F 54.1 °F 83% 29.76 in 10.0 mi ENE 6.9 mph - N/A   Overcast
1:36 PM 59.4 °F 54.1 °F 83% 29.76 in 10.0 mi ENE 6.9 mph - N/A   Overcast
1:55 PM 59.9 °F 53.4 °F 79% 29.76 in 10.0 mi NE 5.8 mph - N/A   Overcast
2:15 PM 59.2 °F 54.0 °F 83% 29.77 in 10.0 mi ENE 4.6 mph - N/A   Overcast
2:35 PM 60.3 °F 53.4 °F 78% 29.78 in 10.0 mi East 4.6 mph - N/A   Overcast
2:36 PM 60.1 °F 53.6 °F 79% 29.78 in 10.0 mi ENE 5.8 mph - N/A   Overcast
2:55 PM 60.1 °F 53.8 °F 80% 29.77 in 10.0 mi NE 4.6 mph - N/A   Overcast
2:56 PM 60.1 °F 53.6 °F 79% 29.77 in 10.0 mi ENE 3.5 mph - N/A   Overcast
3:15 PM 59.7 °F 52.7 °F 78% 29.79 in 10.0 mi NW 6.9 mph - N/A   Overcast
3:35 PM 55.6 °F 50.9 °F 84% 29.77 in 10.0 mi North 6.9 mph - N/A   Overcast
3:55 PM 55.6 °F 50.9 °F 84% 29.78 in 10.0 mi NNW 5.8 mph - N/A   Overcast
4:15 PM 55.6 °F 50.7 °F 84% 29.79 in 10.0 mi NNW 4.6 mph - N/A   Overcast
4:16 PM 55.8 °F 50.9 °F 84% 29.79 in 10.0 mi NNW 4.6 mph - N/A   Overcast
4:35 PM 56.7 °F 51.3 °F 82% 29.77 in 10.0 mi North 5.8 mph - N/A   Overcast
4:36 PM 56.5 °F 51.1 °F 82% 29.77 in 10.0 mi North 5.8 mph - N/A   Overcast
4:55 PM 56.5 °F 51.1 °F 82% 29.78 in 10.0 mi North 5.8 mph - N/A   Overcast
5:15 PM 58.1 °F 51.8 °F 80% 29.76 in 10.0 mi North 6.9 mph - N/A   Overcast
5:35 PM 59.2 °F 52.5 °F 79% 29.74 in 10.0 mi North 5.8 mph - N/A   Overcast
5:36 PM 59.4 °F 52.7 °F 79% 29.74 in 10.0 mi North 5.8 mph - N/A   Overcast
5:55 PM 60.4 °F 53.2 °F 77% 29.74 in 10.0 mi North 4.6 mph - N/A   Overcast
5:56 PM 60.6 °F 53.4 °F 77% 29.74 in 10.0 mi North 5.8 mph - N/A   Overcast
6:15 PM 62.6 °F 54.0 °F 73% 29.73 in 10.0 mi NNE 6.9 mph - N/A   Overcast
6:16 PM 62.6 °F 54.0 °F 73% 29.73 in 10.0 mi NE 8.1 mph - N/A   Overcast
6:35 PM 63.9 °F 54.7 °F 72% 29.73 in 10.0 mi NE 6.9 mph - N/A   Mostly Cloudy
6:55 PM 63.7 °F 53.8 °F 70% 29.74 in 10.0 mi North 5.8 mph - N/A   Mostly Cloudy
7:15 PM 61.9 °F 53.8 °F 75% 29.75 in 10.0 mi NE 3.5 mph - N/A   Overcast
7:16 PM 61.9 °F 53.8 °F 75% 29.75 in 10.0 mi NNE 3.5 mph - N/A   Overcast
7:35 PM 61.7 °F 54.1 °F 76% 29.75 in 10.0 mi Calm Calm - N/A   Overcast
7:36 PM 61.7 °F 54.1 °F 76% 29.75 in 10.0 mi Calm Calm - N/A   Overcast
7:55 PM 60.4 °F 54.1 °F 80% 29.75 in 10.0 mi NNW 3.5 mph - N/A   Overcast
8:15 PM 58.8 °F 53.2 °F 82% 29.76 in 10.0 mi NNW 4.6 mph - N/A   Overcast
8:35 PM 57.6 °F 52.5 °F 83% 29.76 in 10.0 mi NNW 3.5 mph - N/A   Overcast
8:55 PM 57.4 °F 52.7 °F 84% 29.77 in 10.0 mi Calm Calm - N/A   Overcast
8:56 PM 57.4 °F 52.7 °F 84% 29.77 in 10.0 mi Calm Calm - N/A   Overcast
9:15 PM 56.8 °F 52.7 °F 86% 29.78 in 10.0 mi Calm Calm - N/A   Overcast
9:16 PM 56.8 °F 52.7 °F 86% 29.78 in 10.0 mi Calm Calm - N/A   Overcast
9:35 PM 56.3 °F 52.5 °F 87% 29.78 in 10.0 mi North 3.5 mph - N/A   Overcast
9:36 PM 56.3 °F 52.5 °F 87% 29.78 in 10.0 mi North 3.5 mph - N/A   Overcast
9:55 PM 55.9 °F 52.7 °F 89% 29.79 in 10.0 mi Calm Calm - N/A   Overcast
10:15 PM 55.6 °F 52.7 °F 90% 29.78 in 10.0 mi Calm Calm - N/A   Overcast
10:35 PM 55.8 °F 52.7 °F 89% 29.79 in 10.0 mi Calm Calm - N/A   Overcast
10:36 PM 55.8 °F 52.7 °F 89% 29.79 in 10.0 mi Calm Calm - N/A   Overcast
10:55 PM 55.8 °F 53.1 °F 91% 29.79 in 10.0 mi Calm Calm - N/A   Overcast
10:56 PM 55.8 °F 53.1 °F 91% 29.79 in 10.0 mi Calm Calm - N/A   Overcast
11:15 PM 55.9 °F 52.7 °F 89% 29.79 in 10.0 mi Calm Calm - N/A   Overcast
11:16 PM 55.8 °F 52.7 °F 89% 29.79 in 10.0 mi Calm Calm - N/A   Overcast
11:35 PM 55.4 °F 52.9 °F 91% 29.78 in 10.0 mi Calm Calm - N/A   Overcast
11:55 PM 55.0 °F 53.1 °F 93% 29.77 in 10.0 mi Calm Calm - N/A   Overcast